TJS-23

Last updated on Tue Sep 22 2026 00:03:16 GMT+0000 (Coordinated Universal Time)

1 67226U 25306A 26264.33636598 .00000010 00000+0 00000+0 0 9991 2 67226 5.3762 297.0355 0004093 259.8524 99.9897 1.00270134 2854
UTC large
Height (km)
Speed (km/s)
/
Latitude / Longitude
Inclination (degrees)
Orbital Period (minutes)
Azimuth
Elevation
Range (km)
Doppler Factor

Next 0 passes for location: London (51.5072 / 0.1276)

No passes found over London.
TJS-23